[[{"header":{"parameterUnit":"m.s-1","parameterCategory":1,"la1":30.2991,"la2":30.254,"lo1":-89.0895,"lo2":-89.0444,"dy":0.0017,"dx":0.0017,"nx":28,"ny":28,"refTime":"2025-12-30T09:00:00:Z","depth":0,"parameterNumber":2,"parameterNumberName":"U-component_of_WINDS"},"data":[0,0,0,0,0,0,0,0,0,0,0,0,0,0,0,0,0,0,0,0,0,0,0,0,0,0,0,0,0,0,0,0,0,0,0,0,0,0,0,0,0,0,0,0,0,0,0,0,0,0,0,0,0,0,0,0,0,0,1.7183,1.7183,0,1.7189,1.7189,1.7189,1.7184,1.7184,1.7184,1.7184,1.7188,1.7188,1.7189,0,0,0,0,0,0,0,0,0,0,0,0,0,1.7167,1.7168,1.7183,1.7183,1.7183,1.7189,1.7189,1.7189,1.7184,1.7184,1.7184,1.7184,1.7188,1.7188,1.7189,0,0,0,0,0,0,0,0,0,0,0,0,0,1.7174,1.7168,1.7183,1.7182,1.7182,1.7189,1.7189,1.7189,1.7184,1.7184,1.7184,1.7183,1.7188,1.7188,1.7189,1.7197,0,0,1.719,1.719,0,0,0,0,0,0,0,0,1.7173,1.7174,1.7182,1.7182,1.7182,1.7186,1.7185,1.7192,1.7184,1.7183,1.7184,1.7183,1.7187,1.7188,1.719,1.7198,1.7198,1.719,1.719,1.7191,1.7191,0,0,0,0,0,0,0,1.7173,1.7174,1.7185,1.7182,1.7182,1.7181,1.7181,1.7186,1.7187,1.7183,1.7183,1.7184,1.7187,1.7189,1.719,1.7198,1.719,1.7191,1.7191,1.7191,1.7215,1.7215,0,0,0,0,0,0,1.7173,1.7174,1.7185,1.7186,1.7177,1.7181,1.7182,1.7185,1.7187,1.7187,1.7184,1.7184,1.7189,1.7189,1.719,1.7201,1.7191,1.7191,1.7191,1.7214,1.7215,1.7215,0,0,0,0,0,0,1.7172,1.7174,1.7185,1.718,1.7181,1.7182,1.7185,1.7185,1.7187,1.7187,1.7187,1.7186,1.7188,1.7189,1.7196,1.7201,1.7191,1.7192,1.7214,1.7214,1.7215,1.7222,0,0,0,0,0,0,1.7172,1.7174,1.7177,1.718,1.7181,1.7191,1.7185,1.7185,1.7188,1.7187,1.7189,1.7189,1.7188,1.7195,1.7196,1.7201,1.7192,1.7213,1.7214,1.7215,1.7221,1.7223,1.7224,0,0,0,0,0,1.7171,1.7178,1.7177,1.7179,1.7185,1.7191,1.7192,1.7191,1.7188,1.7191,1.7192,1.7189,1.72,1.7196,1.7197,1.7202,1.7213,1.7214,1.7215,1.7221,1.7222,1.7224,0,0,0,0,0,0,1.7175,1.7178,1.7177,1.7185,1.7188,1.7191,1.7195,1.7193,1.7197,1.7196,1.7194,1.7195,1.7202,1.7203,1.7198,1.7211,1.7206,1.7207,1.721,1.7212,1.7213,1.7212,1.7192,0,0,0,0,0,1.7177,1.7182,1.7185,1.7191,1.7193,1.7194,1.7196,1.7196,1.7198,1.7199,1.72,1.7203,1.7207,1.721,1.7213,1.7222,1.7222,1.7226,1.7227,1.7228,1.7229,1.7234,1.7236,1.7218,1.7218,1.7218,0,0,1.718,1.7183,1.7186,1.7192,1.7194,1.7199,1.7195,1.72,1.7204,1.72,1.7207,1.7208,1.721,1.7218,1.7222,1.7219,1.7234,1.7229,1.723,1.723,1.7235,1.7237,1.7238,1.7218,1.7218,1.7218,0,0,1.7189,1.7192,1.7198,1.7201,1.7205,1.7206,1.7207,1.721,1.7211,1.7218,1.7216,1.722,1.7227,1.7229,1.7231,1.7244,1.7241,1.7245,1.7251,1.7256,1.7258,1.7259,1.7263,1.7265,1.7246,1.7246,1.7246,0,1.7193,1.7201,1.7201,1.7207,1.721,1.7208,1.7215,1.7217,1.7222,1.7224,1.7221,1.7231,1.7233,1.7241,1.7244,1.7246,1.7248,1.7244,1.7257,1.7259,1.726,1.7264,1.7265,1.7246,1.7246,1.7246,1.7246,0,1.7205,1.7211,1.7216,1.7221,1.7225,1.7231,1.7232,1.7236,1.7235,1.7236,1.7244,1.7246,1.7251,1.7253,1.7252,1.7262,1.726,1.7258,1.7252,1.7262,1.7266,1.7267,1.7247,1.7247,1.7247,1.7246,0,0,1.7215,1.7222,1.7224,1.7227,1.7232,1.7236,1.7242,1.7248,1.7251,1.7255,1.726,1.7267,1.7265,1.7267,1.7267,1.7272,1.7281,1.7268,1.7268,1.727,1.7292,1.7294,1.7296,1.728,1.728,1.7281,1.7292,0,1.7224,1.7236,1.7237,1.7247,1.7253,1.7252,1.7258,1.7261,1.7263,1.7268,1.7269,1.7274,1.7271,1.7273,1.7278,1.7279,1.7286,1.7278,1.7285,1.7285,1.7283,1.7298,1.7299,1.731,1.7294,1.7294,1.7294,0,1.7236,1.7241,1.7252,1.7257,1.726,1.7265,1.727,1.7275,1.728,1.7281,1.7284,1.7284,1.7291,1.7286,1.7295,1.729,1.7293,1.7295,1.7295,1.7295,1.7289,1.7297,1.7313,1.7314,1.7296,1.7296,1.7296,0,1.7242,1.7252,1.726,1.7262,1.7269,1.7272,1.7275,1.7279,1.7283,1.7288,1.729,1.7296,1.7299,1.7303,1.7304,1.7301,1.7314,1.7309,1.7314,1.7314,1.7316,1.7316,1.7332,1.7319,1.7319,1.7319,1.7319,0,1.7251,1.7258,1.7263,1.7267,1.7275,1.7277,1.7284,1.7287,1.7291,1.7297,1.7296,1.7301,1.7303,1.7308,1.7309,1.7317,1.7318,1.7319,1.7319,1.7319,1.7319,1.732,1.7319,1.7319,1.7319,1.7319,1.7319,0,1.7259,1.7262,1.7271,1.7277,1.7279,1.7284,1.7289,1.7294,1.7296,1.7303,1.7305,1.7308,1.7314,1.7317,1.7324,1.7325,1.7334,1.7333,1.7332,1.7332,1.7337,1.7336,1.7354,1.7356,1.7343,1.7343,1.7343,0,1.7264,1.727,1.7277,1.7281,1.7284,1.729,1.7294,1.7297,1.7301,1.7307,1.7311,1.7318,1.7323,1.7333,1.7336,1.7342,1.7342,1.7348,1.7343,1.7342,1.7342,1.7341,1.7342,1.7348,1.7348,1.7348,1.7349,0,1.7274,1.7276,1.7282,1.7289,1.7294,1.7299,1.7304,1.7307,1.7311,1.7316,1.7323,1.7327,1.7335,1.7342,1.7348,1.7351,1.735,1.735,1.7352,1.7351,1.735,1.735,1.7334,1.735,1.7349,1.7349,1.7349,1.7349,1.728,1.7285,1.7291,1.7298,1.7303,1.7308,1.7313,1.7317,1.7323,1.733,1.7331,1.7339,1.7344,1.7353,1.7356,1.7362,1.7361,1.7363,1.7363,1.7363,1.7364,1.735,1.7363,1.7363,1.7363,1.7363,1.7363,0,1.729,1.7294,1.73,1.7308,1.7314,1.7314,1.732,1.7325,1.7332,1.7337,1.7343,1.7351,1.7358,1.7362,1.7369,1.7373,1.7373,1.7375,1.7374,1.7375,1.7365,1.7363,1.7375,1.7375,1.7375,1.7375,1.7375,1.7375,1.7295,1.7304,1.7306,1.7317,1.7322,1.7329,1.7333,1.7338,1.7342,1.7352,1.7358,1.7361,1.7366,1.7374,1.738,1.7381,1.7383,1.7385,1.7386,1.7377,1.7375,1.7374,1.7372,1.7386,1.7386,1.7395,1.7395,1.7395]},{"header":{"parameterUnit":"m.s-1","parameterCategory":1,"la1":30.2991,"la2":30.254,"lo1":-89.0895,"lo2":-89.0444,"dy":0.0017,"dx":0.0017,"nx":28,"ny":28,"refTime":"2025-12-30T09:00:00:Z","depth":0,"parameterNumber":3,"parameterNumberName":"V-component_of_WINDS"},"data":[0,0,0,0,0,0,0,0,0,0,0,0,0,0,0,0,0,0,0,0,0,0,0,0,0,0,0,0,0,0,0,0,0,0,0,0,0,0,0,0,0,0,0,0,0,0,0,0,0,0,0,0,0,0,0,0,0,0,-8.1513,-8.1515,0,-8.1706,-8.1708,-8.171,-8.1621,-8.1616,-8.1611,-8.1607,-8.1798,-8.1808,-8.1817,0,0,0,0,0,0,0,0,0,0,0,0,0,-8.1062,-8.1071,-8.1513,-8.1515,-8.1518,-8.1706,-8.1708,-8.1711,-8.1622,-8.1616,-8.161,-8.1604,-8.1795,-8.1806,-8.1818,0,0,0,0,0,0,0,0,0,0,0,0,0,-8.1257,-8.1074,-8.1513,-8.1496,-8.1497,-8.1705,-8.1708,-8.1712,-8.1623,-8.1616,-8.1608,-8.1602,-8.1791,-8.1805,-8.182,-8.2054,0,0,-8.1864,-8.187,0,0,0,0,0,0,0,0,-8.1246,-8.1273,-8.1496,-8.1498,-8.1499,-8.1632,-8.1619,-8.1826,-8.1625,-8.1575,-8.1607,-8.1598,-8.1748,-8.1766,-8.1818,-8.2063,-8.2071,-8.1865,-8.1874,-8.188,-8.1884,0,0,0,0,0,0,0,-8.1233,-8.1265,-8.1589,-8.1499,-8.1501,-8.1477,-8.1497,-8.1658,-8.17,-8.1579,-8.1573,-8.1597,-8.1748,-8.1804,-8.1822,-8.2074,-8.1865,-8.1877,-8.1886,-8.1892,-8.252,-8.2528,0,0,0,0,0,0,-8.122,-8.1254,-8.1583,-8.1595,-8.1352,-8.1491,-8.1513,-8.1596,-8.1698,-8.1706,-8.1603,-8.1592,-8.1783,-8.1805,-8.1828,-8.2109,-8.188,-8.1893,-8.1902,-8.2512,-8.2522,-8.2531,0,0,0,0,0,0,-8.1211,-8.125,-8.1575,-8.1423,-8.1463,-8.1507,-8.1601,-8.1604,-8.1661,-8.1716,-8.1723,-8.1654,-8.1778,-8.1808,-8.1999,-8.2115,-8.19,-8.1913,-8.2503,-8.2515,-8.2526,-8.2674,0,0,0,0,0,0,-8.1198,-8.1248,-8.1338,-8.1426,-8.1471,-8.1745,-8.1608,-8.1613,-8.1686,-8.1674,-8.1765,-8.1774,-8.1775,-8.1978,-8.2013,-8.2131,-8.1924,-8.2493,-8.2508,-8.2523,-8.2659,-8.2689,-8.2715,0,0,0,0,0,-8.1183,-8.1371,-8.1343,-8.1384,-8.1586,-8.1752,-8.1777,-8.1777,-8.1696,-8.1787,-8.1823,-8.1771,-8.2096,-8.1998,-8.2037,-8.2161,-8.2485,-8.2504,-8.2521,-8.2646,-8.2683,-8.2715,0,0,0,0,0,0,-8.1293,-8.1382,-8.1352,-8.1575,-8.1657,-8.1736,-8.1851,-8.1816,-8.1921,-8.1905,-8.1898,-8.1919,-8.2117,-8.2158,-8.2047,-8.2393,-8.2278,-8.2305,-8.2359,-8.2395,-8.2423,-8.2409,-8.1936,0,0,0,0,0,-8.1344,-8.1474,-8.1543,-8.1732,-8.1775,-8.1806,-8.1878,-8.1871,-8.1955,-8.1988,-8.2038,-8.212,-8.224,-8.232,-8.2434,-8.2664,-8.2682,-8.2768,-8.2796,-8.2819,-8.2843,-8.2967,-8.3006,-8.259,-8.259,-8.259,0,0,-8.145,-8.1514,-8.1595,-8.1756,-8.1819,-8.1951,-8.1836,-8.1981,-8.2079,-8.201,-8.2194,-8.2233,-8.2324,-8.2536,-8.2631,-8.2575,-8.2962,-8.2842,-8.286,-8.2871,-8.299,-8.3029,-8.3064,-8.2602,-8.26,-8.2598,0,0,-8.171,-8.1771,-8.1936,-8.2002,-8.2099,-8.2119,-8.2158,-8.2244,-8.2268,-8.2453,-8.2405,-8.252,-8.2728,-8.2794,-8.2856,-8.3142,-8.3098,-8.3179,-8.3327,-8.3449,-8.3482,-8.3511,-8.3613,-8.365,-8.3202,-8.3202,-8.3202,0,-8.1828,-8.2028,-8.2025,-8.2175,-8.2247,-8.2193,-8.2359,-8.2422,-8.2551,-8.2601,-8.2537,-8.2797,-8.2854,-8.3081,-8.3151,-8.3202,-8.3247,-8.3169,-8.3478,-8.3507,-8.3534,-8.3631,-8.367,-8.3211,-8.321,-8.3209,-8.3209,0,-8.2168,-8.2308,-8.2429,-8.2557,-8.2642,-8.28,-8.282,-8.2906,-8.2891,-8.2917,-8.3106,-8.3173,-8.33,-8.3353,-8.3339,-8.3578,-8.354,-8.3478,-8.3362,-8.3583,-8.3674,-8.3711,-8.3225,-8.3221,-8.3219,-8.3216,0,0,-8.2504,-8.2629,-8.2674,-8.2732,-8.2835,-8.2942,-8.3096,-8.3222,-8.3296,-8.3387,-8.3515,-8.3693,-8.3636,-8.3705,-8.3698,-8.3805,-8.4028,-8.3729,-8.3731,-8.3783,-8.4296,-8.4343,-8.4386,-8.4,-8.4007,-8.4012,-8.4288,0,-8.2771,-8.3044,-8.3047,-8.3297,-8.3425,-8.3376,-8.351,-8.3587,-8.3616,-8.3727,-8.3757,-8.3884,-8.3798,-8.384,-8.3944,-8.3979,-8.4131,-8.3959,-8.4118,-8.4124,-8.4098,-8.4434,-8.4484,-8.4742,-8.4324,-8.433,-8.4334,0,-8.3121,-8.3225,-8.3489,-8.3574,-8.3628,-8.3749,-8.3865,-8.3973,-8.4059,-8.4072,-8.4151,-8.4128,-8.4283,-8.4163,-8.4377,-8.426,-8.4325,-8.4352,-8.4362,-8.4377,-8.4243,-8.4458,-8.4824,-8.4863,-8.4391,-8.4386,-8.4382,0,-8.3339,-8.3545,-8.373,-8.3781,-8.3885,-8.3971,-8.4018,-8.4097,-8.4173,-8.4274,-8.4323,-8.444,-8.4504,-8.4594,-8.4602,-8.4514,-8.4818,-8.4698,-8.4832,-8.4832,-8.4898,-8.4894,-8.528,-8.494,-8.4939,-8.4938,-8.4938,0,-8.3639,-8.3802,-8.383,-8.3944,-8.4125,-8.4126,-8.4304,-8.4344,-8.4415,-8.4534,-8.4497,-8.4609,-8.4614,-8.4728,-8.4735,-8.4911,-8.494,-8.4954,-8.4954,-8.4958,-8.4956,-8.5,-8.4983,-8.4949,-8.4946,-8.4944,-8.4943,0,-8.3914,-8.3939,-8.4137,-8.422,-8.4245,-8.4375,-8.4445,-8.4553,-8.4578,-8.4729,-8.4765,-8.4803,-8.4936,-8.4954,-8.5109,-8.5113,-8.5325,-8.5306,-8.5297,-8.5295,-8.5427,-8.5415,-8.5855,-8.5913,-8.5535,-8.5538,-8.5541,0,-8.4103,-8.4228,-8.4325,-8.4404,-8.4456,-8.4583,-8.466,-8.4665,-8.4747,-8.4855,-8.495,-8.508,-8.5184,-8.5398,-8.5439,-8.5557,-8.5541,-8.5687,-8.5558,-8.5558,-8.5543,-8.5536,-8.5548,-8.5712,-8.5716,-8.5719,-8.5722,0,-8.4437,-8.4444,-8.4559,-8.4679,-8.4774,-8.4868,-8.4956,-8.5022,-8.5038,-8.5132,-8.5269,-8.535,-8.5509,-8.5638,-8.5755,-8.58,-8.5765,-8.5762,-8.5799,-8.5805,-8.5795,-8.5803,-8.5366,-8.5752,-8.5749,-8.5747,-8.5745,-8.5744,-8.4676,-8.4785,-8.4871,-8.5,-8.5067,-8.5151,-8.5257,-8.5296,-8.5411,-8.5543,-8.5538,-8.5688,-8.577,-8.5924,-8.5978,-8.6095,-8.6047,-8.61,-8.6114,-8.6127,-8.6141,-8.5776,-8.6116,-8.6115,-8.6114,-8.6114,-8.6113,0,-8.5008,-8.5061,-8.518,-8.5307,-8.5408,-8.5367,-8.5463,-8.555,-8.5684,-8.5765,-8.5869,-8.6026,-8.6151,-8.6202,-8.6324,-8.6407,-8.6394,-8.6439,-8.6433,-8.6445,-8.6177,-8.6133,-8.6448,-8.6448,-8.6448,-8.6448,-8.6448,-8.6448,-8.5193,-8.5376,-8.5393,-8.5608,-8.5659,-8.5809,-8.5867,-8.5944,-8.6008,-8.6186,-8.6291,-8.6324,-8.6393,-8.652,-8.6632,-8.6644,-8.669,-8.6744,-8.6748,-8.6497,-8.6463,-8.6431,-8.639,-8.6754,-8.6754,-8.7006,-8.7008,-8.701]}]]